{"data":{"norad_id":66577,"intl_designator":"2025-268W","name":"STARLINK-35815","alt_names":[],"object_type":"PAYLOAD","status":"ACTIVE","operator":null,"country":"US","launch_date":"2025-11-21","launch_site_code":"AFETR","launch_vehicle":null,"mission":null,"orbit_class":"UNKNOWN","rcs_meters":null,"size_class":null,"mass_kg":null,"dimensions":null,"purposes":["comms"],"wikipedia_slug":null,"has_3d_model":false,"image_url":null,"decayed_at":null,"tle_current":{"epoch":"2026-05-25T02:06:16.792704Z","epoch_age_seconds":63398,"freshness":"FRESH","line1":"1 66577U 25268W   26145.08769436  .00017506  00000+0  64411-3 0  9992","line2":"2 66577  43.0004 275.6218 0001199 259.1460 100.9257 15.27582580 29640","mean_motion":15.2758258,"eccentricity":0.0001199,"inclination_deg":43.0004,"raan_deg":275.6218,"arg_perigee_deg":259.146,"mean_anomaly_deg":100.9257,"bstar":0.00064411,"rev_number":2964,"period_min":94.26658950248,"perigee_km":482.21871531574,"apogee_km":483.86402588901,"semimajor_km":6861.1783706024,"source":"CELESTRAK","updated_at":"2026-05-25T13:38:21.284066Z"}}}